WESTMAR Weather Reports


time (UTC)temp
C
wind
direction
speed
KPH
gust
KPH
rain 1hr
cm
rain 24hr
cm
rain mn
cm
humidity
%
barometer
mb
20260503230048 30 179 0.0 3.2 0.00 0.00 0.00 36 1009.1
20260503224546 30 24 0.0 6.4 0.00 0.00 0.00 36 1009.2
20260503223050 30 0 0.0 3.2 0.00 0.00 0.00 37 1009.4
20260503221556 29 0 0.0 3.2 0.00 0.00 0.00 37 1009.6
20260503220051 30 0 0.0 4.8 0.00 0.00 0.00 37 1009.7
20260503214544 28 0 0.0 6.4 0.00 0.00 0.00 40 1009.9
20260503213044 28 148 0.0 6.4 0.00 0.00 0.00 40 1010.1
20260503211548 28 0 0.0 8.0 0.00 0.00 0.00 40 1010.1
20260503210047 28 234 0.0 6.4 0.00 0.00 0.00 41 1010.3
20260503204546 27 154 0.0 8.0 0.00 0.00 0.00 42 1010.6
20260503203056 27 0 0.0 6.4 0.00 0.00 0.00 42 1010.8
20260503201551 27 208 0.0 4.8 0.00 0.00 0.00 43 1010.9
20260503200054 26 0 0.0 6.4 0.00 0.00 0.00 45 1011.1
20260503194558 26 0 0.0 4.8 0.00 0.00 0.00 44 1011.4
20260503193056 27 170 0.0 6.4 0.00 0.00 0.00 44 1011.5
20260503191554 25 0 0.0 4.8 0.00 0.00 0.00 46 1011.6
20260503190050 25 0 0.0 3.2 0.00 0.00 0.00 49 1011.6
20260503184550 24 0 0.0 4.8 0.00 0.00 0.00 50 1011.8
20260503183051 23 0 0.0 4.8 0.00 0.00 0.00 51 1011.9
20260503181552 23 0 0.0 6.4 0.00 0.00 0.00 49 1011.9
20260503180100 23 178 0.0 3.2 0.00 0.00 0.00 51 1011.9
20260503174547 23 69 0.0 3.2 0.00 0.00 0.00 52 1012.0
20260503173109 22 178 0.0 4.8 0.00 0.00 0.00 52 1012.0
20260503171552 22 0 0.0 6.4 0.00 0.00 0.00 54 1012.1
20260503081544 11 0 0.0 3.2 0.00 0.00 0.00 77 1012.5
20260503080127 11 0 0.0 0.0 0.00 0.00 0.00 76 1012.5
20260503071603 11 0 0.0 0.0 0.00 0.00 0.00 78 1012.5
20260503060103 13 0 0.0 0.0 0.00 0.00 0.00 69 1012.4
20260503054556 13 0 0.0 0.0 0.00 0.00 0.00 67 1012.5
20260503053043 13 0 0.0 0.0 0.00 0.00 0.00 70 1012.4
20260503051547 14 0 0.0 0.0 0.00 0.00 0.00 71 1012.5
20260503050051 14 0 0.0 0.0 0.00 0.00 0.00 71 1012.4
20260503044546 15 0 0.0 1.6 0.00 0.00 0.00 70 1012.4
20260503043045 15 0 0.0 0.0 0.00 0.00 0.00 69 1012.3
20260503041545 16 0 0.0 1.6 0.00 0.00 0.00 67 1012.1
20260503040100 17 0 0.0 0.0 0.00 0.00 0.00 66 1012.1
20260503034546 18 0 0.0 0.0 0.00 0.00 0.00 59 1012.0
20260503033045 20 0 0.0 0.0 0.00 0.00 0.00 55 1011.8
20260503031600 21 0 0.0 0.0 0.00 0.00 0.00 54 1011.6
20260503030049 22 0 0.0 0.0 0.00 0.00 0.00 49 1011.4
20260503024550 23 0 0.0 0.0 0.00 0.00 0.00 45 1011.3
20260503023050 23 0 0.0 0.0 0.00 0.00 0.00 42 1011.3
20260503021548 24 0 0.0 0.0 0.00 0.00 0.00 42 1011.2
20260503020051 25 0 0.0 0.0 0.00 0.00 0.00 41 1011.3
20260503014607 26 0 0.0 0.0 0.00 0.00 0.00 40 1011.3
20260503013048 26 0 0.0 0.0 0.00 0.00 0.00 39 1011.4
20260503011550 27 0 0.0 3.2 0.00 0.00 0.00 39 1011.3
20260503010048 28 0 0.0 3.2 0.00 0.00 0.00 37 1011.3
20260503004542 28 0 0.0 3.2 0.00 0.00 0.00 37 1011.5
20260503003050 29 0 0.0 1.6 0.00 0.00 0.00 36 1011.7
20260503001555 28 0 0.0 4.8 0.00 0.00 0.00 36 1011.9
20260503000048 28 0 0.0 4.8 0.00 0.00 0.00 37 1012.0
20260502234553 28 195 0.0 6.4 0.00 0.00 0.00 38 1012.1
20260502233054 28 0 0.0 4.8 0.00 0.00 0.00 38 1012.3
20260502231547 28 127 0.0 3.2 0.00 0.00 0.00 39 1012.5